[[{"header":{"parameterUnit":"m.s-1","parameterCategory":2,"la1":30.2992,"la2":30.254,"lo1":-89.0895,"lo2":-89.0443,"dy":0.0025,"dx":0.0025,"nx":19,"ny":19,"refTime":"2026-03-09T21:00:00:Z","depth":"0","parameterNumber":2,"parameterNumberName":"U-component_of_CURRENTS"},"data":[0,0,0,-0.0205,-0.0208,-0.0315,-0.0316,-0.0324,-0.0324,0,0,0,0,0,0,0,0,0,0,0,-0.0153,-0.0154,-0.0205,-0.0208,-0.0315,-0.0316,-0.0324,-0.0324,0,0,0,0,0,0,0,0,0,0,0,-0.0153,-0.0154,-0.0155,-0.0208,-0.0315,-0.0316,-0.0324,-0.0273,0,0,0,0,0,0,0,0,0,0,-0.0184,-0.0154,-0.0154,-0.0155,-0.0209,-0.0315,-0.0316,-0.0272,-0.0276,-0.0242,0,-0.0261,0,-0.0301,-0.0323,-0.0323,0,0,0,-0.0198,-0.0151,-0.0188,-0.0155,-0.021,-0.0315,-0.0264,-0.0275,-0.028,-0.0247,-0.0261,-0.0263,-0.0301,-0.0323,-0.0323,-0.0337,-0.0337,0,0,-0.0192,-0.0163,-0.0185,-0.0191,-0.0238,-0.0261,-0.0268,-0.0279,-0.0276,-0.0262,-0.0264,-0.0301,-0.0322,-0.0322,-0.0337,-0.0337,0,0,0,-0.0182,-0.0158,-0.0197,-0.0189,-0.0224,-0.0264,-0.0272,-0.0275,-0.0291,-0.0265,-0.0301,-0.0322,-0.0322,-0.0336,-0.0337,-0.0416,0,0,0,-0.0178,-0.0154,-0.0194,-0.0177,-0.0224,-0.0269,-0.0267,-0.029,-0.0294,-0.0301,-0.0322,-0.0322,-0.0336,-0.0336,-0.0414,-0.0422,0,0,0,-0.0149,-0.0151,-0.0165,-0.0175,-0.0229,-0.027,-0.0287,-0.0292,-0.0315,-0.0323,-0.0322,-0.0336,-0.0336,-0.0411,-0.0418,-0.0467,0,0,0,-0.0111,-0.0148,-0.0164,-0.0223,-0.0229,-0.0321,-0.0287,-0.034,-0.0354,-0.0322,-0.0336,-0.0337,-0.041,-0.0416,-0.0464,-0.0524,-0.0542,0,0,-0.0142,-0.015,-0.0191,-0.021,-0.0307,-0.0305,-0.0385,-0.038,-0.0347,-0.032,-0.0322,-0.0415,-0.0418,-0.0466,-0.0568,-0.0584,0,0,0,-0.0192,-0.0218,-0.0252,-0.0312,-0.0372,-0.0419,-0.0431,-0.0425,-0.0421,-0.0362,-0.0407,-0.0406,-0.0435,-0.0465,-0.0478,-0.0508,-0.034,-0.034,-0.034,-0.0192,-0.0247,-0.0315,-0.0387,-0.0437,-0.0493,-0.0522,-0.0507,-0.0471,-0.048,-0.0468,-0.0548,-0.0582,-0.0592,-0.0623,-0.0476,-0.0477,-0.0477,-0.0477,-0.025,-0.0296,-0.0352,-0.0428,-0.0481,-0.0531,-0.0583,-0.0578,-0.0591,-0.0537,-0.0563,-0.0542,-0.0612,-0.0638,-0.0482,-0.0481,-0.0481,-0.048,-0.048,-0.0247,-0.0277,-0.0318,-0.0409,-0.0476,-0.054,-0.0589,-0.0617,-0.0638,-0.0666,-0.0685,-0.0684,-0.071,-0.0679,-0.0679,-0.068,-0.068,-0.068,-0.068,-0.0223,-0.0273,-0.0302,-0.0389,-0.0427,-0.0492,-0.058,-0.0622,-0.0717,-0.0755,-0.0756,-0.0745,-0.0609,-0.0604,-0.0685,-0.0684,-0.0683,-0.0683,-0.0683,-0.0246,-0.0229,-0.0279,-0.0306,-0.0392,-0.0418,-0.0526,-0.0665,-0.0747,-0.0813,-0.0916,-0.0816,-0.0791,-0.078,-0.0778,-0.0899,-0.0899,-0.0899,-0.0899,-0.0226,-0.0234,-0.026,-0.0286,-0.0331,-0.0385,-0.0441,-0.0617,-0.0872,-0.1006,-0.1021,-0.1002,-0.0992,-0.0976,-0.0961,-0.0961,-0.1125,-0.1125,-0.1126,-0.0235,-0.0237,-0.0238,-0.0254,-0.0297,-0.0325,-0.0349,-0.0574,-0.1002,-0.1134,-0.1055,-0.1045,-0.1012,-0.0993,-0.0958,-0.0934,-0.0929,0,0]},{"header":{"parameterUnit":"m.s-1","parameterCategory":2,"la1":30.2992,"la2":30.254,"lo1":-89.0895,"lo2":-89.0443,"dy":0.0025,"dx":0.0025,"nx":19,"ny":19,"refTime":"2026-03-09T21:00:00:Z","depth":"0","parameterNumber":3,"parameterNumberName":"V-component_of_CURRENTS"},"data":[0,0,0,0.0157,0.0159,0.0336,0.0338,0.0685,0.0688,0,0,0,0,0,0,0,0,0,0,0,0.0117,0.0118,0.0157,0.0159,0.0336,0.0338,0.0684,0.0688,0,0,0,0,0,0,0,0,0,0,0,0.0117,0.0117,0.0118,0.0159,0.0336,0.0338,0.0684,0.0536,0,0,0,0,0,0,0,0,0,0,0.0356,0.0265,0.0117,0.0118,0.016,0.0336,0.0338,0.0529,0.0546,0.0617,0,0.0613,0,0.0622,0.0707,0.0708,0,0,0,0.0227,0.0251,0.0294,0.0118,0.016,0.0335,0.0276,0.0538,0.0557,0.064,0.0618,0.0629,0.0627,0.0709,0.0711,0.0923,0.0923,0,0,0.0217,0.017,0.028,0.0304,0.0168,0.0269,0.028,0.0549,0.0558,0.0619,0.0637,0.0633,0.0711,0.0713,0.0923,0.0923,0,0,0,0.0143,0.0162,0.0199,0.0291,0.0293,0.0273,0.0285,0.0547,0.0556,0.064,0.0637,0.0713,0.0717,0.0922,0.0923,0.0791,0,0,0,0.014,0.0114,0.0193,0.0171,0.0286,0.04,0.0277,0.0539,0.0568,0.0635,0.0713,0.0719,0.0922,0.0923,0.0795,0.0729,0,0,0,0.0116,0.0112,0.0119,0.0167,0.021,0.0395,0.0423,0.0546,0.0563,0.0709,0.072,0.0922,0.0923,0.0797,0.0735,0.0686,0,0,0,0.0085,0.0076,0.0118,0.013,0.0207,0.0331,0.0422,0.0542,0.0659,0.0714,0.0922,0.0923,0.0798,0.0739,0.0689,0.0667,0.0647,0,0,0.0057,0.0072,0.0086,0.0126,0.0202,0.0314,0.0413,0.059,0.069,0.0855,0.086,0.0794,0.0735,0.0686,0.0683,0.0662,0,0,0,0.0069,0.0074,0.0112,0.0159,0.0261,0.0349,0.0512,0.0577,0.0711,0.0744,0.0836,0.0805,0.0777,0.0773,0.0758,0.0957,0.0924,0.0924,0.0924,-0.0015,0.0049,0.0083,0.0173,0.0248,0.0396,0.047,0.0589,0.0699,0.0718,0.0729,0.0645,0.0642,0.063,0.0836,0.0772,0.0771,0.0771,0.0771,-0.0042,-0.0018,0.0052,0.0108,0.0202,0.0292,0.0435,0.0496,0.057,0.0658,0.0638,0.0675,0.0604,0.0832,0.0763,0.0764,0.0765,0.0766,0.0767,-0.0078,-0.0063,-0.0028,0.0035,0.0091,0.0213,0.0244,0.0355,0.0448,0.0432,0.0467,0.0469,0.0642,0.0428,0.0427,0.0427,0.0426,0.0426,0.0426,-0.0131,-0.0098,-0.0089,-0.0033,-0.0014,0.0032,0.0138,0.0163,0.0239,0.0327,0.0328,0.065,0.0541,0.0523,0.0418,0.0419,0.042,0.0421,0.0422,-0.0148,-0.015,-0.0145,-0.0135,-0.0107,-0.0129,-0.0048,-0.0014,0.0033,0.0039,0.0472,0.0288,0.033,0.0345,0.0324,0.0174,0.0174,0.0174,0.0174,-0.0175,-0.0172,-0.0183,-0.0192,-0.0204,-0.0193,-0.0261,-0.016,0.0163,0.0398,0.0485,0.059,0.0591,0.0657,0.0665,0.0656,0.0593,0.0594,0.0595,-0.0181,-0.0191,-0.0207,-0.022,-0.0241,-0.0282,-0.0364,-0.0226,0.0357,0.0636,0.0766,0.0748,0.0932,0.0918,0.1049,0.1045,0.104,0,0]}],[{"header":{"parameterUnit":"m.s-1","parameterCategory":2,"la1":30.2992,"la2":30.254,"lo1":-89.0895,"lo2":-89.0443,"dy":0.0025,"dx":0.0025,"nx":19,"ny":19,"refTime":"2026-03-09T21:00:00:Z","depth":"2","parameterNumber":2,"parameterNumberName":"U-component_of_CURRENTS"},"data":[0,0,0,-0.1499,-0.1497,-0.1355,-0.1354,-0.1182,-0.118,0,0,0,0,0,0,0,0,0,0,0,-0.1543,-0.1543,-0.1499,-0.1497,-0.1355,-0.1354,-0.1182,-0.118,0,0,0,0,0,0,0,0,0,0,0,-0.1544,-0.1543,-0.1542,-0.1496,-0.1355,-0.1354,-0.1182,-0.1283,0,0,0,0,0,0,0,0,0,0,-0.1417,-0.1447,-0.1543,-0.1542,-0.1496,-0.1355,-0.1354,-0.1287,-0.1276,-0.1254,0,-0.1237,0,-0.1214,-0.1171,-0.117,0,0,0,-0.1479,-0.1456,-0.1438,-0.1542,-0.1494,-0.1356,-0.1414,-0.1281,-0.1269,-0.124,-0.1234,-0.1228,-0.1211,-0.117,-0.1169,-0.1104,-0.1105,0,0,-0.1487,-0.1494,-0.1447,-0.1431,-0.1464,-0.1419,-0.141,-0.1273,-0.1251,-0.1234,-0.1224,-0.1208,-0.1169,-0.1168,-0.1104,-0.1104,0,0,0,-0.1521,-0.15,-0.1484,-0.1438,-0.1417,-0.1415,-0.1405,-0.1257,-0.1258,-0.1222,-0.1206,-0.1168,-0.1166,-0.1103,-0.1104,-0.115,0,0,0,-0.1525,-0.1521,-0.1488,-0.1487,-0.142,-0.133,-0.1391,-0.1267,-0.1251,-0.1207,-0.1168,-0.1165,-0.1103,-0.1104,-0.1148,-0.1169,0,0,0,-0.1549,-0.1523,-0.1514,-0.1489,-0.1438,-0.1332,-0.1322,-0.1262,-0.1242,-0.117,-0.1164,-0.1103,-0.1104,-0.1146,-0.1166,-0.1139,0,0,0,-0.1552,-0.1524,-0.1514,-0.1481,-0.144,-0.1393,-0.1323,-0.1256,-0.1199,-0.1167,-0.1103,-0.1104,-0.1145,-0.1164,-0.1137,-0.1183,-0.1192,0,0,-0.1523,-0.152,-0.1507,-0.1496,-0.1465,-0.1411,-0.1376,-0.1265,-0.1208,-0.1144,-0.1142,-0.1149,-0.1166,-0.1138,-0.1235,-0.1242,0,0,0,-0.1504,-0.1487,-0.148,-0.1454,-0.1433,-0.1407,-0.1317,-0.1284,-0.1207,-0.1181,-0.1154,-0.1164,-0.1144,-0.117,-0.1176,-0.1108,-0.1108,-0.1108,-0.1108,-0.1437,-0.1452,-0.143,-0.1438,-0.1424,-0.1391,-0.1364,-0.1304,-0.1243,-0.1225,-0.1205,-0.1224,-0.1254,-0.1259,-0.1209,-0.1209,-0.1209,-0.1209,-0.121,-0.1393,-0.1371,-0.1407,-0.1384,-0.1401,-0.137,-0.1371,-0.1338,-0.1288,-0.1256,-0.1234,-0.1224,-0.1268,-0.1213,-0.1213,-0.1212,-0.1212,-0.1211,-0.1211,-0.1334,-0.1326,-0.1325,-0.1324,-0.1328,-0.1345,-0.1371,-0.1368,-0.1309,-0.131,-0.1282,-0.1282,-0.1228,-0.1275,-0.1275,-0.1275,-0.1275,-0.1275,-0.1275,-0.1255,-0.1268,-0.1242,-0.1259,-0.1258,-0.1298,-0.1354,-0.1362,-0.1359,-0.1335,-0.1335,-0.1245,-0.1243,-0.123,-0.1275,-0.1275,-0.1275,-0.1275,-0.1275,-0.1144,-0.1163,-0.1141,-0.1138,-0.1186,-0.1235,-0.1326,-0.1376,-0.1376,-0.1366,-0.1337,-0.1336,-0.1314,-0.1309,-0.1298,-0.1357,-0.1357,-0.1357,-0.1357,-0.1058,-0.1074,-0.1044,-0.1064,-0.1125,-0.121,-0.1258,-0.1296,-0.1309,-0.1266,-0.1269,-0.127,-0.1271,-0.1244,-0.1241,-0.1227,-0.1268,-0.1267,-0.1266,-0.0975,-0.0994,-0.0953,-0.1006,-0.1087,-0.1173,-0.1194,-0.1162,-0.1106,-0.1254,-0.1158,-0.137,-0.1383,-0.1379,-0.1346,-0.1338,-0.1319,0,0]},{"header":{"parameterUnit":"m.s-1","parameterCategory":2,"la1":30.2992,"la2":30.254,"lo1":-89.0895,"lo2":-89.0443,"dy":0.0025,"dx":0.0025,"nx":19,"ny":19,"refTime":"2026-03-09T21:00:00:Z","depth":"2","parameterNumber":3,"parameterNumberName":"V-component_of_CURRENTS"},"data":[0,0,0,-0.0335,-0.0335,-0.0327,-0.0327,-0.0188,-0.0187,0,0,0,0,0,0,0,0,0,0,0,-0.0345,-0.0345,-0.0335,-0.0335,-0.0327,-0.0327,-0.0188,-0.0187,0,0,0,0,0,0,0,0,0,0,0,-0.0345,-0.0345,-0.0345,-0.0335,-0.0327,-0.0327,-0.0189,-0.0226,0,0,0,0,0,0,0,0,0,0,-0.0249,-0.0297,-0.0345,-0.0345,-0.0335,-0.0327,-0.0327,-0.0229,-0.0224,-0.0155,0,-0.0164,0,-0.0165,-0.0174,-0.0174,0,0,0,-0.0333,-0.0302,-0.0279,-0.0345,-0.0334,-0.0327,-0.033,-0.0227,-0.0221,-0.0147,-0.0163,-0.0158,-0.0163,-0.0173,-0.0172,-0.0002,-0.0001,0,0,-0.0333,-0.0356,-0.0284,-0.0276,-0.0342,-0.033,-0.033,-0.0225,-0.0231,-0.0162,-0.0155,-0.0161,-0.0172,-0.0171,-0.0002,-0.0002,0,0,0,-0.0336,-0.0357,-0.034,-0.0281,-0.0286,-0.033,-0.033,-0.0236,-0.0225,-0.0154,-0.0159,-0.0171,-0.0169,-0.0003,-0.0002,-0.0061,0,0,0,-0.0336,-0.0357,-0.034,-0.0355,-0.0289,-0.0283,-0.0343,-0.0233,-0.0221,-0.016,-0.0171,-0.0167,-0.0003,-0.0002,-0.006,-0.0094,0,0,0,-0.0343,-0.0358,-0.0357,-0.0356,-0.0351,-0.0285,-0.027,-0.0232,-0.0223,-0.0174,-0.0167,-0.0004,-0.0002,-0.006,-0.0092,-0.0048,0,0,0,-0.0366,-0.0386,-0.0358,-0.0375,-0.0351,-0.032,-0.0271,-0.0252,-0.0218,-0.017,-0.0003,-0.0002,-0.006,-0.0091,-0.0048,-0.003,-0.0028,0,0,-0.0401,-0.0391,-0.0396,-0.0371,-0.0372,-0.0321,-0.0287,-0.0228,-0.0166,-0.0029,-0.0026,-0.006,-0.0092,-0.0048,0.0041,0.004,0,0,0,-0.0413,-0.0428,-0.0419,-0.0417,-0.0372,-0.0324,-0.0264,-0.0203,-0.0108,-0.0139,-0.0018,-0.0036,-0.0007,0.0006,0.0006,0.0004,0.0004,0.0004,0.0003,-0.0523,-0.0484,-0.0499,-0.0448,-0.0413,-0.0321,-0.026,-0.0155,-0.0103,-0.006,-0.0053,-0.0019,-0.0006,-0.0006,-0.0012,-0.0012,-0.0012,-0.0012,-0.0012,-0.0594,-0.0604,-0.0552,-0.0552,-0.0468,-0.0422,-0.0244,-0.019,-0.0057,-0.0038,-0.0006,-0.0019,-0.001,-0.0016,-0.0015,-0.0015,-0.0014,-0.0014,-0.0014,-0.0677,-0.0672,-0.0668,-0.0648,-0.0606,-0.049,-0.0395,-0.0261,-0.0119,-0.0086,-0.0024,-0.0022,-0.006,-0.0063,-0.0063,-0.0063,-0.0063,-0.0063,-0.0063,-0.0761,-0.0748,-0.0772,-0.0744,-0.0738,-0.067,-0.0482,-0.0372,-0.0183,-0.0074,-0.0073,-0.0035,-0.0034,-0.0059,-0.0062,-0.0063,-0.0063,-0.0063,-0.0063,-0.084,-0.0838,-0.087,-0.088,-0.085,-0.0804,-0.0627,-0.0375,-0.0235,-0.013,-0.0032,-0.0033,-0.0002,-0.0001,-0.0023,-0.0016,-0.0016,-0.0016,-0.0016,-0.0898,-0.0897,-0.0939,-0.0959,-0.0948,-0.0858,-0.0684,-0.0391,-0.0127,-0.0002,-0.0003,-0.0006,-0.0008,0.0023,0.0024,0.0003,0.0016,0.0016,0.0016,-0.0937,-0.0944,-0.0982,-0.0998,-0.0994,-0.0908,-0.0724,-0.0368,-0.0046,0.0016,-0.0009,-0.0012,-0.0019,-0.0021,0.0027,0.0028,-0.0006,0,0]}],[{"header":{"parameterUnit":"m.s-1","parameterCategory":2,"la1":30.2992,"la2":30.254,"lo1":-89.0895,"lo2":-89.0443,"dy":0.0025,"dx":0.0025,"nx":19,"ny":19,"refTime":"2026-03-09T21:00:00:Z","depth":"4","parameterNumber":2,"parameterNumberName":"U-component_of_CURRENTS"},"data":[0,0,0,-0.0936,-0.0938,-0.1,-0.1,-0.1056,-0.1056,0,0,0,0,0,0,0,0,0,0,0,-0.0919,-0.0919,-0.0936,-0.0938,-0.1,-0.1,-0.1055,-0.1056,0,0,0,0,0,0,0,0,0,0,0,-0.0918,-0.0919,-0.092,-0.0938,-0.1,-0.1,-0.1055,-0.1013,0,0,0,0,0,0,0,0,0,0,-0.0955,-0.0938,-0.0919,-0.092,-0.0939,-0.1,-0.1,-0.1011,-0.1016,-0.1022,0,-0.1041,0,-0.105,-0.106,-0.106,0,0,0,-0.0933,-0.0935,-0.0958,-0.092,-0.0939,-0.1,-0.0971,-0.1014,-0.1019,-0.1027,-0.1042,-0.1044,-0.1051,-0.106,-0.106,-0.1148,-0.1149,0,0,-0.093,-0.0921,-0.0955,-0.0962,-0.0968,-0.0969,-0.0973,-0.1017,-0.1023,-0.1042,-0.1045,-0.1052,-0.106,-0.1061,-0.1148,-0.1149,0,0,0,-0.0923,-0.0919,-0.0941,-0.0959,-0.0973,-0.0971,-0.0975,-0.1021,-0.1031,-0.1046,-0.1053,-0.1061,-0.1061,-0.1147,-0.1148,-0.1165,0,0,0,-0.0921,-0.0915,-0.094,-0.0934,-0.0973,-0.1,-0.0978,-0.1028,-0.1034,-0.1053,-0.1061,-0.1062,-0.1147,-0.1148,-0.1163,-0.1192,0,0,0,-0.0914,-0.0914,-0.0927,-0.0934,-0.0963,-0.1,-0.1012,-0.103,-0.1038,-0.106,-0.1062,-0.1146,-0.1148,-0.1162,-0.1189,-0.1212,0,0,0,-0.0894,-0.0903,-0.0927,-0.0939,-0.0963,-0.1,-0.1012,-0.1037,-0.1056,-0.1061,-0.1147,-0.1148,-0.1161,-0.1187,-0.121,-0.1049,0,0,0,-0.0888,-0.0902,-0.0908,-0.0931,-0.096,-0.0991,-0.1033,-0.1062,-0.1081,-0.1128,-0.113,-0.1164,-0.1189,-0.1212,-0.1131,0,0,0,0,-0.0895,-0.0897,-0.091,-0.0937,-0.0976,-0.1033,-0.1062,-0.1087,-0.1144,-0.1101,-0.1187,-0.1203,-0.1216,-0.1118,-0.1155,-0.1155,-0.1154,-0.1154,-0.1154,-0.0854,-0.0883,-0.0899,-0.0945,-0.0984,-0.1061,-0.1111,-0.1161,-0.1161,-0.1199,-0.1233,-0.1288,-0.1185,-0.124,-0.124,-0.124,-0.124,-0.124,-0.124,-0.0822,-0.0824,-0.089,-0.0922,-0.1011,-0.1066,-0.1171,-0.1202,-0.1288,-0.1276,-0.1287,-0.1163,-0.1242,-0.1242,-0.1242,-0.1241,-0.1241,-0.1241,-0.1241,-0.0769,-0.0778,-0.0819,-0.0881,-0.0984,-0.1089,-0.1159,-0.125,-0.1317,-0.1353,-0.1246,-0.1314,-0.1294,-0.1353,-0.1353,-0.1353,-0.1353,-0.1354,-0.1354,-0.0695,-0.0733,-0.0755,-0.0847,-0.0895,-0.1004,-0.1175,-0.1227,-0.1319,-0.1275,-0.1367,-0.1326,-0.1323,-0.1302,-0.1357,-0.1357,-0.1356,-0.1356,-0.1356,-0.0608,-0.0637,-0.0649,-0.0686,-0.0799,-0.087,-0.1055,-0.1162,-0.1222,-0.1218,-0.1225,-0.1231,-0.1214,-0.1214,-0.1188,-0.1212,-0.121,-0.1208,0,-0.0544,-0.056,-0.0558,-0.0565,-0.0627,-0.0771,-0.0854,-0.0978,-0.1075,-0.1034,-0.1188,-0.119,-0.1195,-0.1169,-0.1166,-0.1132,0,0,0,-0.0484,-0.0496,-0.0466,-0.0483,-0.0531,-0.069,-0.088,-0.0897,-0.106,-0.1086,-0.1162,-0.1174,-0.1265,-0.1368,-0.1357,-0.1353,-0.1319,0,0]},{"header":{"parameterUnit":"m.s-1","parameterCategory":2,"la1":30.2992,"la2":30.254,"lo1":-89.0895,"lo2":-89.0443,"dy":0.0025,"dx":0.0025,"nx":19,"ny":19,"refTime":"2026-03-09T21:00:00:Z","depth":"4","parameterNumber":3,"parameterNumberName":"V-component_of_CURRENTS"},"data":[0,0,0,0.0076,0.0076,0.0097,0.0097,0.0126,0.0127,0,0,0,0,0,0,0,0,0,0,0,0.007,0.007,0.0076,0.0077,0.0097,0.0097,0.0126,0.0127,0,0,0,0,0,0,0,0,0,0,0,0.0069,0.007,0.007,0.0077,0.0097,0.0097,0.0126,0.0111,0,0,0,0,0,0,0,0,0,0,0.009,0.0081,0.007,0.007,0.0077,0.0097,0.0097,0.011,0.0111,0.0117,0,0.012,0,0.0123,0.0128,0.0129,0,0,0,0.0078,0.008,0.0087,0.007,0.0077,0.0097,0.0088,0.0111,0.0113,0.012,0.012,0.0122,0.0124,0.0129,0.0129,0.013,0.013,0,0,0.0077,0.0072,0.0086,0.0088,0.0082,0.0088,0.0089,0.0112,0.0113,0.0121,0.0122,0.0124,0.0129,0.0129,0.013,0.013,0,0,0,0.0073,0.0071,0.0078,0.0087,0.009,0.0088,0.009,0.0112,0.0114,0.0123,0.0124,0.0129,0.0129,0.013,0.013,0.0068,0,0,0,0.0072,0.0069,0.0077,0.0075,0.0089,0.01,0.0089,0.0113,0.0116,0.0124,0.0129,0.013,0.013,0.013,0.0071,0.0064,0,0,0,0.0069,0.0068,0.0071,0.0074,0.0082,0.01,0.0104,0.0114,0.0117,0.0129,0.013,0.0131,0.013,0.0072,0.0067,0.012,0,0,0,0.0063,0.0051,0.0071,0.0048,0.0082,0.0058,0.0104,0.0097,0.0101,0.0129,0.013,0.013,0.0073,0.0069,0.0121,0.0101,0,0,0,0.004,0.0048,0.003,0.0048,0.0006,0.0056,0.0022,0.0057,0.0099,0.0124,0.0124,0.007,0.0067,0.0121,0.0073,0,0,0,0,0.0016,0.0003,-0.0007,-0.0026,-0.0028,-0.0029,0.0004,0.0032,0.0066,0.0101,0.0078,0.0079,0.0114,0.0103,0.0128,0.0128,0.0128,0.0128,0.0128,-0.0017,-0.0035,-0.0081,-0.0101,-0.011,-0.0088,-0.0068,-0.0018,0.0014,0.0029,0.0033,0.0039,0.0021,0.0029,0.0029,0.0028,0.0028,0.0028,0.0028,-0.0077,-0.0111,-0.0139,-0.0187,-0.0188,-0.0202,-0.0141,-0.0097,-0.0018,-0.0008,0.003,0.0042,0.0022,0.0023,0.0024,0.0025,0.0025,0.0025,0.0026,-0.0103,-0.0125,-0.0158,-0.0235,-0.0273,-0.0262,-0.0238,-0.0169,-0.006,-0.003,0.0022,0.0032,0.0037,0.0004,0.0004,0.0005,0.0005,0.0005,0.0005,-0.011,-0.015,-0.0212,-0.0284,-0.0332,-0.0351,-0.0278,-0.0196,-0.0083,-0.0022,-0.0023,0.0033,0.0034,0.0038,0.0008,0.0007,0.0007,0.0007,0.0006,-0.0145,-0.0152,-0.0244,-0.0304,-0.0407,-0.0419,-0.0359,-0.0185,-0.0076,0.0023,0.0006,0.0005,0.0047,0.0049,0.0056,0.0029,0.0029,0.0028,0,-0.0155,-0.0171,-0.0278,-0.037,-0.0442,-0.0452,-0.0335,-0.0221,-0.0069,-0.0084,-0.0059,-0.0088,-0.0085,-0.0047,-0.0045,-0.0044,0,0,0,-0.0184,-0.0203,-0.0279,-0.0366,-0.046,-0.0368,-0.0301,-0.0234,-0.0125,-0.0002,0.0021,0.0023,-0.0012,0.0016,0.0082,0.0083,0.0095,0,0]}]]